Hourly Weather Roundup
Issued by NWS Central Illinois

Home | Current Version | Previous Version | Text Only | Print | Product List | Glossary On
Versions: 1 2 3 4 5 6 7 8 9 10 11 12 13 14 15 16 17 18 19 20 21 22 23 24 25 26 27 28 29 30 31 32 33 34 35 36 37 38 39 40 41 42 43 44 45 46 47 48 49 50
000
NZUS43 KILX 180210
HWRILX

AREA WEATHER ROUNDUP
NATIONAL WEATHER SERVICE, LINCOLN IL
800 PM CST WED DEC 17 2014


CITY           SKY/WX    TMP DP  RH WIND       PRES   REMARKS
BLOOMINGTON    CLOUDY    25  21  84 W3        30.29F
CHAMPAIGN      CLOUDY    24  19  81 W5        30.29F WCI  18
DECATUR        CLOUDY    24  19  81 N6        30.31S WCI  17
FLORA          FAIR      28  24  85 N3        30.31S
GALESBURG      PTCLDY    19  17  92 W3        30.29F
JACKSONVILLE   CLEAR     25  20  82 CALM      30.30S
LACON          CLEAR     20  16  83 CALM      30.30S
LAWRENCEVILLE  CLOUDY    29  22  75 NW5       30.31F WCI  24
LITCHFIELD     PTCLDY    25  21  85 NE5       30.30R WCI  20
$$


CITY           SKY/WX    TMP DP  RH WIND       PRES   REMARKS
LINCOLN        MOCLDY    24  20  86 CALM      30.31F
MACOMB         PTCLDY    22  21  95 NW3       30.31F
MATTOON        CLOUDY    23  18  81 N8        30.30S WCI  14
MT CARMEL AP   PTCLDY    32  25  74 CALM      30.30F
OLNEY-NOBLE AP PTCLDY    28  25  86 CALM      30.31S
PARIS          CLOUDY    25  21  85 W5        30.32R WCI  19
PEORIA         PTCLDY    24  18  77 CALM      30.29F
PONTIAC        CLOUDY    27  21  77 NW6       30.30S WCI  21
RANTOUL        CLOUDY    28  21  75 NW7       30.29S WCI  20
ROBINSON       CLOUDY    28  23  81 NW6       30.33S WCI  22
SPRINGFIELD    CLEAR     22  17  81 E5        30.30F WCI  16
TAYLORVILLE    CLEAR     23  19  86 NE7       30.30S WCI  15
$$

...REGIONAL REPORTS...


CITY           SKY/WX    TMP DP  RH WIND       PRES   REMARKS
CHICAGO O`HARE CLOUDY    25  16  68 W9        30.27R WCI  15
KANKAKEE       CLOUDY    27  20  76 W8        30.29S WCI  18
MOLINE         CLEAR     20  15  81 W5        30.30S WCI  13
MOUNT VERNON   CLOUDY    30  21  69 NE6       30.30S WCI  24
PITTSFIELD     PTCLDY    27  22  82 CALM      30.31R
QUINCY         PTCLDY    25  18  74 CALM      30.29R
ROCKFORD       CLOUDY    24  15  68 W7        30.30R WCI  16
$$


CITY           SKY/WX    TMP DP  RH WIND       PRES   REMARKS
BURLINGTON     CLEAR     23  19  85 N6        30.29S WCI  16
CEDAR RAPIDS   PTCLDY    17  13  84 CALM      30.28S
DES MOINES     CLEAR     24  16  71 NE5       30.29R WCI  18
KIRKSVILLE     CLOUDY    25  22  88 CALM      30.29R
OTTUMWA        CLEAR     20  16  84 N3        30.30R
ST LOUIS       MOCLDY    33  25  72 NE6       30.29S WCI  28
$$


CITY           SKY/WX    TMP DP  RH WIND       PRES   REMARKS
TERRE HAUTE    CLOUDY    24  19  81 W6        30.32R WCI  17
EVANSVILLE     PTCLDY    31  25  78 N3        30.31S
INDIANAPOLIS   CLOUDY    23  19  85 NW8       30.28R WCI  14
LAFAYETTE      CLOUDY    25  20  81 W6        30.29S WCI  18
MADISON        CLOUDY    21  14  74 NW8       30.27R WCI  11
MILWAUKEE      CLEAR     23  13  65 W9        30.25R WCI  13
$$





USA.gov is the U.S. government's official web portal to all federal, state and local government web resources and services.